Year,Month,Day,Hour,Minute,Value (Times are PST for windgust in km/hr)
2021,01,13,00,00,27.40
2021,01,13,00,01,37.00
2021,01,13,00,02,54.70
2021,01,13,00,03,38.60
2021,01,13,00,04,32.20
2021,01,13,00,05,33.80
2021,01,13,00,06,30.60
2021,01,13,00,07,46.70
2021,01,13,00,08,43.50
2021,01,13,00,09,38.60
2021,01,13,00,10,45.10
2021,01,13,00,11,43.50
2021,01,13,00,12,32.20
2021,01,13,00,13,59.50
2021,01,13,00,14,41.80
2021,01,13,00,15,43.50
2021,01,13,00,16,40.20
2021,01,13,00,17,69.20
2021,01,13,00,18,35.40
2021,01,13,00,19,32.20
2021,01,13,00,20,33.80
2021,01,13,00,21,45.10
2021,01,13,00,22,37.00
2021,01,13,00,23,43.50
2021,01,13,00,24,46.70
2021,01,13,00,25,33.80
2021,01,13,00,26,37.00
2021,01,13,00,27,17.70
2021,01,13,00,28,37.00
2021,01,13,00,29,32.20
2021,01,13,00,30,24.20
2021,01,13,00,31,17.70
2021,01,13,00,32,25.70
2021,01,13,00,33,22.50
2021,01,13,00,34,32.20
2021,01,13,00,35,32.20
2021,01,13,00,36,22.50
2021,01,13,00,37,33.80
2021,01,13,00,38,46.70
2021,01,13,00,39,38.60
2021,01,13,00,40,25.70
2021,01,13,00,41,45.10
2021,01,13,00,42,43.50
2021,01,13,00,43,45.10
2021,01,13,00,44,40.20
2021,01,13,00,45,32.20
2021,01,13,00,46,45.10
2021,01,13,00,47,38.60
2021,01,13,00,48,40.20
2021,01,13,00,49,30.60
2021,01,13,00,50,45.10
2021,01,13,00,51,20.90
2021,01,13,00,52,35.40
2021,01,13,00,53,25.70
2021,01,13,00,54,29.00
2021,01,13,00,55,32.20
2021,01,13,00,56,24.20
2021,01,13,00,57,24.20
2021,01,13,00,58,17.70
2021,01,13,00,59,27.40
2021,01,13,01,00,22.50
2021,01,13,01,01,30.60
2021,01,13,01,02,30.60
2021,01,13,01,03,33.80
2021,01,13,01,04,40.20
2021,01,13,01,05,29.00
2021,01,13,01,06,32.20
2021,01,13,01,07,19.30
2021,01,13,01,08,30.60
2021,01,13,01,09,30.60
2021,01,13,01,10,33.80
2021,01,13,01,11,37.00
2021,01,13,01,12,33.80
2021,01,13,01,13,30.60
2021,01,13,01,14,20.90
2021,01,13,01,15,22.50
2021,01,13,01,16,35.40
2021,01,13,01,17,35.40
2021,01,13,01,18,24.20
2021,01,13,01,19,27.40
2021,01,13,01,20,24.20
2021,01,13,01,21,38.60
2021,01,13,01,22,40.20
2021,01,13,01,23,49.90
2021,01,13,01,24,37.00
2021,01,13,01,25,45.10
2021,01,13,01,26,37.00
2021,01,13,01,27,17.70
2021,01,13,01,28,20.90
2021,01,13,01,29,30.60
2021,01,13,01,30,33.80
2021,01,13,01,31,30.60
2021,01,13,01,32,30.60
2021,01,13,01,33,46.70
2021,01,13,01,34,40.20
2021,01,13,01,35,33.80
2021,01,13,01,36,25.70
2021,01,13,01,37,40.20
2021,01,13,01,38,24.20
2021,01,13,01,39,27.40
2021,01,13,01,40,20.90
2021,01,13,01,41,19.30
2021,01,13,01,42,29.00
2021,01,13,01,43,53.10
2021,01,13,01,44,41.80
2021,01,13,01,45,40.20
2021,01,13,01,46,16.10
2021,01,13,01,47,24.20
2021,01,13,01,48,25.70
2021,01,13,01,49,19.30
2021,01,13,01,50,25.70
2021,01,13,01,51,35.40
2021,01,13,01,52,30.60
2021,01,13,01,53,20.90
2021,01,13,01,54,14.50
2021,01,13,01,55,30.60
2021,01,13,01,56,45.10
2021,01,13,01,57,41.80
2021,01,13,01,58,40.20
2021,01,13,01,59,22.50
2021,01,13,02,00,35.40
2021,01,13,02,01,46.70
2021,01,13,02,02,33.80
2021,01,13,02,03,27.40
2021,01,13,02,04,41.80
2021,01,13,02,05,30.60
2021,01,13,02,06,19.30
2021,01,13,02,07,30.60
2021,01,13,02,08,30.60
2021,01,13,02,09,19.30
2021,01,13,02,10,14.50
2021,01,13,02,11,14.50
2021,01,13,02,12,24.20
2021,01,13,02,13,24.20
2021,01,13,02,14,30.60
2021,01,13,02,15,29.00
2021,01,13,02,16,25.70
2021,01,13,02,17,16.10
2021,01,13,02,18,29.00
2021,01,13,02,19,45.10
2021,01,13,02,20,25.70
2021,01,13,02,21,16.10
2021,01,13,02,22,9.60
2021,01,13,02,23,8.10
2021,01,13,02,24,6.40
2021,01,13,02,25,16.10
2021,01,13,02,26,25.70
2021,01,13,02,27,30.60
2021,01,13,02,28,30.60
2021,01,13,02,29,33.80
2021,01,13,02,30,40.20
2021,01,13,02,31,33.80
2021,01,13,02,32,43.50
2021,01,13,02,33,29.00
2021,01,13,02,34,27.40
2021,01,13,02,35,20.90
2021,01,13,02,36,30.60
2021,01,13,02,37,19.30
2021,01,13,02,38,14.50
2021,01,13,02,39,24.20
2021,01,13,02,40,20.90
2021,01,13,02,41,19.30
2021,01,13,02,42,17.70
2021,01,13,02,43,25.70
2021,01,13,02,44,16.10
2021,01,13,02,45,9.60
2021,01,13,02,46,30.60
2021,01,13,02,47,22.50
2021,01,13,02,48,29.00
2021,01,13,02,49,29.00
2021,01,13,02,50,24.20
2021,01,13,02,51,22.50
2021,01,13,02,52,17.70
2021,01,13,02,53,16.10
2021,01,13,02,54,19.30
2021,01,13,02,55,30.60
2021,01,13,02,56,35.40
2021,01,13,02,57,24.20
2021,01,13,02,58,17.70
2021,01,13,02,59,16.10
2021,01,13,03,00,24.20
2021,01,13,03,01,38.60
2021,01,13,03,02,17.70
2021,01,13,03,03,12.90
2021,01,13,03,04,30.60
2021,01,13,03,05,35.40
2021,01,13,03,06,37.00
2021,01,13,03,07,27.40
2021,01,13,03,08,14.50
2021,01,13,03,09,19.30
2021,01,13,03,10,14.50
2021,01,13,03,11,32.20
2021,01,13,03,12,24.20
2021,01,13,03,13,30.60
2021,01,13,03,14,8.10
2021,01,13,03,15,11.30
2021,01,13,03,16,53.10
2021,01,13,03,17,37.00
2021,01,13,03,18,32.20
2021,01,13,03,19,25.70
2021,01,13,03,20,29.00
2021,01,13,03,21,30.60
2021,01,13,03,22,20.90
2021,01,13,03,23,19.30
2021,01,13,03,24,19.30
2021,01,13,03,25,17.70
2021,01,13,03,26,29.00
2021,01,13,03,27,22.50
2021,01,13,03,28,27.40
2021,01,13,03,29,16.10
2021,01,13,03,30,17.70
2021,01,13,03,31,29.00
2021,01,13,03,32,16.10
2021,01,13,03,33,35.40
2021,01,13,03,34,35.40
2021,01,13,03,35,32.20
2021,01,13,03,36,20.90
2021,01,13,03,37,35.40
2021,01,13,03,38,29.00
2021,01,13,03,39,14.50
2021,01,13,03,40,27.40
2021,01,13,03,41,30.60
2021,01,13,03,42,19.30
2021,01,13,03,43,27.40
2021,01,13,03,44,9.60
2021,01,13,03,45,6.40
2021,01,13,03,46,16.10
2021,01,13,03,47,8.10
2021,01,13,03,48,11.30
2021,01,13,03,49,22.50
2021,01,13,03,50,12.90
2021,01,13,03,51,20.90
2021,01,13,03,52,19.30
2021,01,13,03,53,17.70
2021,01,13,03,54,24.20
2021,01,13,03,55,17.70
2021,01,13,03,56,17.70
2021,01,13,03,57,3.20
2021,01,13,03,58,19.30
2021,01,13,03,59,17.70
2021,01,13,04,00,25.70
2021,01,13,04,01,22.50
2021,01,13,04,02,8.10
2021,01,13,04,03,11.30
2021,01,13,04,04,25.70
2021,01,13,04,05,16.10
2021,01,13,04,06,27.40
2021,01,13,04,07,25.70
2021,01,13,04,08,22.50
2021,01,13,04,09,19.30
2021,01,13,04,10,20.90
2021,01,13,04,11,11.30
2021,01,13,04,12,22.50
2021,01,13,04,13,8.10
2021,01,13,04,14,11.30
2021,01,13,04,15,37.00
2021,01,13,04,16,38.60
2021,01,13,04,17,29.00
2021,01,13,04,18,43.50
2021,01,13,04,19,41.80
2021,01,13,04,20,14.50
2021,01,13,04,21,20.90
2021,01,13,04,22,27.40
2021,01,13,04,23,32.20
2021,01,13,04,24,20.90
2021,01,13,04,25,16.10
2021,01,13,04,26,6.40
2021,01,13,04,27,6.40
2021,01,13,04,28,3.20
2021,01,13,04,29,25.70
2021,01,13,04,30,29.00
2021,01,13,04,31,9.60
2021,01,13,04,32,9.60
2021,01,13,04,33,20.90
2021,01,13,04,34,14.50
2021,01,13,04,35,20.90
2021,01,13,04,36,14.50
2021,01,13,04,37,19.30
2021,01,13,04,38,19.30
2021,01,13,04,39,29.00
2021,01,13,04,40,27.40
2021,01,13,04,41,17.70
2021,01,13,04,42,6.40
2021,01,13,04,43,22.50
2021,01,13,04,44,19.30
2021,01,13,04,45,9.60
2021,01,13,04,46,1.60
2021,01,13,04,47,9.60
2021,01,13,04,48,20.90
2021,01,13,04,49,16.10
2021,01,13,04,50,11.30
2021,01,13,04,51,11.30
2021,01,13,04,52,14.50
2021,01,13,04,53,17.70
2021,01,13,04,54,14.50
2021,01,13,04,55,3.20
2021,01,13,04,56,16.10
2021,01,13,04,57,20.90
2021,01,13,04,58,19.30
2021,01,13,04,59,22.50
2021,01,13,05,00,20.90
2021,01,13,05,01,11.30
2021,01,13,05,02,19.30
2021,01,13,05,03,14.50
2021,01,13,05,04,17.70
2021,01,13,05,05,27.40
2021,01,13,05,06,11.30
2021,01,13,05,07,3.20
2021,01,13,05,08,1.60
2021,01,13,05,09,16.10
2021,01,13,05,10,22.50
2021,01,13,05,11,25.70
2021,01,13,05,12,20.90
2021,01,13,05,13,22.50
2021,01,13,05,14,8.10
2021,01,13,05,15,19.30
2021,01,13,05,16,11.30
2021,01,13,05,17,4.80
2021,01,13,05,18,4.80
2021,01,13,05,19,16.10
2021,01,13,05,20,11.30
2021,01,13,05,21,17.70
2021,01,13,05,22,19.30
2021,01,13,05,23,22.50
2021,01,13,05,24,19.30
2021,01,13,05,25,16.10
2021,01,13,05,26,4.80
2021,01,13,05,27,6.40
2021,01,13,05,28,16.10
2021,01,13,05,29,14.50
2021,01,13,05,30,11.30
2021,01,13,05,31,14.50
2021,01,13,05,32,17.70
2021,01,13,05,33,3.20
2021,01,13,05,34,8.10
2021,01,13,05,35,17.70
2021,01,13,05,36,9.60
2021,01,13,05,37,24.20
2021,01,13,05,38,19.30
2021,01,13,05,39,29.00
2021,01,13,05,40,25.70
2021,01,13,05,41,24.20
2021,01,13,05,42,12.90
2021,01,13,05,43,8.10
2021,01,13,05,44,11.30
2021,01,13,05,45,11.30
2021,01,13,05,46,16.10
2021,01,13,05,47,8.10
2021,01,13,05,48,14.50
2021,01,13,05,49,8.10
2021,01,13,05,50,14.50
2021,01,13,05,51,14.50
2021,01,13,05,52,6.40
2021,01,13,05,53,1.60
2021,01,13,05,54,11.30
2021,01,13,05,55,9.60
2021,01,13,05,56,17.70
2021,01,13,05,57,27.40
2021,01,13,05,58,14.50
2021,01,13,05,59,14.50
2021,01,13,06,00,14.50
2021,01,13,06,01,27.40
2021,01,13,06,02,11.30
2021,01,13,06,03,24.20
2021,01,13,06,04,6.40
2021,01,13,06,05,9.60
2021,01,13,06,06,27.40
2021,01,13,06,07,20.90
2021,01,13,06,08,16.10
2021,01,13,06,09,12.90
2021,01,13,06,10,27.40
2021,01,13,06,11,4.80
2021,01,13,06,12,11.30
2021,01,13,06,13,11.30
2021,01,13,06,14,4.80
2021,01,13,06,15,6.40
2021,01,13,06,16,6.40
2021,01,13,06,17,1.60
2021,01,13,06,18,6.40
2021,01,13,06,19,20.90
2021,01,13,06,20,19.30
2021,01,13,06,21,14.50
2021,01,13,06,22,14.50
2021,01,13,06,23,6.40
2021,01,13,06,24,9.60
2021,01,13,06,25,11.30
2021,01,13,06,26,19.30
2021,01,13,06,27,17.70
2021,01,13,06,28,19.30
2021,01,13,06,29,4.80
2021,01,13,06,30,4.80
2021,01,13,06,31,8.10
2021,01,13,06,32,6.40
2021,01,13,06,33,8.10
2021,01,13,06,34,1.60
2021,01,13,06,35,8.10
2021,01,13,06,36,3.20
2021,01,13,06,37,9.60
2021,01,13,06,38,4.80
2021,01,13,06,39,6.40
2021,01,13,06,40,14.50
2021,01,13,06,41,8.10
2021,01,13,06,42,14.50
2021,01,13,06,43,20.90
2021,01,13,06,44,17.70
2021,01,13,06,45,17.70
2021,01,13,06,46,11.30
2021,01,13,06,47,16.10
2021,01,13,06,48,29.00
2021,01,13,06,49,22.50
2021,01,13,06,50,17.70
2021,01,13,06,51,17.70
2021,01,13,06,52,20.90
2021,01,13,06,53,16.10
2021,01,13,06,54,16.10
2021,01,13,06,55,19.30
2021,01,13,06,56,20.90
2021,01,13,06,57,20.90
2021,01,13,06,58,9.60
2021,01,13,06,59,6.40
2021,01,13,07,00,24.20
2021,01,13,07,01,19.30
2021,01,13,07,02,4.80
2021,01,13,07,03,1.60
2021,01,13,07,04,1.60
2021,01,13,07,05,8.10
2021,01,13,07,06,4.80
2021,01,13,07,07,1.60
2021,01,13,07,08,11.30
2021,01,13,07,09,4.80
2021,01,13,07,10,17.70
2021,01,13,07,11,12.90
2021,01,13,07,12,22.50
2021,01,13,07,13,8.10
2021,01,13,07,14,1.60
2021,01,13,07,15,6.40
2021,01,13,07,16,4.80
2021,01,13,07,17,16.10
2021,01,13,07,18,16.10
2021,01,13,07,19,22.50
2021,01,13,07,20,17.70
2021,01,13,07,21,11.30
2021,01,13,07,22,1.60
2021,01,13,07,23,4.80
2021,01,13,07,24,9.60
2021,01,13,07,25,16.10
2021,01,13,07,26,8.10
2021,01,13,07,27,3.20
2021,01,13,07,28,9.60
2021,01,13,07,29,20.90
2021,01,13,07,30,4.80
2021,01,13,07,32,1.60
2021,01,13,07,33,1.60
2021,01,13,07,34,22.50
2021,01,13,07,35,17.70
2021,01,13,07,36,14.50
2021,01,13,07,37,33.80
2021,01,13,07,38,19.30
2021,01,13,07,39,11.30
2021,01,13,07,40,3.20
2021,01,13,07,41,1.60
2021,01,13,07,42,22.50
2021,01,13,07,43,24.20
2021,01,13,07,44,16.10
2021,01,13,07,45,11.30
2021,01,13,07,47,11.30
2021,01,13,07,48,27.40
2021,01,13,07,49,16.10
2021,01,13,07,50,14.50
2021,01,13,07,51,8.10
2021,01,13,07,52,17.70
2021,01,13,07,53,11.30
2021,01,13,07,54,11.30
2021,01,13,07,55,19.30
2021,01,13,07,56,6.40
2021,01,13,07,57,17.70
2021,01,13,07,58,19.30
2021,01,13,07,59,11.30
2021,01,13,08,00,11.30
2021,01,13,08,01,29.00
2021,01,13,08,02,24.20
2021,01,13,08,03,14.50
2021,01,13,08,04,8.10
2021,01,13,08,05,16.10
2021,01,13,08,06,8.10
2021,01,13,08,07,20.90
2021,01,13,08,08,24.20
2021,01,13,08,09,11.30
2021,01,13,08,10,11.30
2021,01,13,08,11,30.60
2021,01,13,08,12,27.40
2021,01,13,08,13,11.30
2021,01,13,08,14,22.50
2021,01,13,08,15,14.50
2021,01,13,08,16,27.40
2021,01,13,08,17,16.10
2021,01,13,08,18,17.70
2021,01,13,08,19,20.90
2021,01,13,08,20,20.90
2021,01,13,08,21,6.40
2021,01,13,08,22,11.30
2021,01,13,08,23,32.20
2021,01,13,08,24,8.10
2021,01,13,08,25,16.10
2021,01,13,08,26,14.50
2021,01,13,08,27,16.10
2021,01,13,08,28,1.60
2021,01,13,08,29,3.20
2021,01,13,08,30,8.10
2021,01,13,08,31,14.50
2021,01,13,08,32,24.20
2021,01,13,08,33,14.50
2021,01,13,08,34,8.10
2021,01,13,08,35,8.10
2021,01,13,08,36,4.80
2021,01,13,08,37,9.60
2021,01,13,08,38,3.20
2021,01,13,08,39,3.20
2021,01,13,08,40,4.80
2021,01,13,08,41,4.80
2021,01,13,08,42,16.10
2021,01,13,08,43,22.50
2021,01,13,08,44,14.50
2021,01,13,08,45,11.30
2021,01,13,08,46,24.20
2021,01,13,08,47,17.70
2021,01,13,08,48,17.70
2021,01,13,08,49,17.70
2021,01,13,08,50,17.70
2021,01,13,08,51,11.30
2021,01,13,08,52,9.60
2021,01,13,08,53,17.70
2021,01,13,08,54,20.90
2021,01,13,08,55,11.30
2021,01,13,08,56,16.10
2021,01,13,08,57,19.30
2021,01,13,08,58,14.50
2021,01,13,08,59,1.60
2021,01,13,09,00,17.70
2021,01,13,09,01,9.60
2021,01,13,09,02,14.50
2021,01,13,09,03,17.70
2021,01,13,09,04,22.50
2021,01,13,09,05,6.40
2021,01,13,09,06,6.40
2021,01,13,09,07,16.10
2021,01,13,09,08,9.60
2021,01,13,09,09,17.70
2021,01,13,09,10,22.50
2021,01,13,09,11,24.20
2021,01,13,09,12,19.30
2021,01,13,09,13,17.70
2021,01,13,09,14,16.10
2021,01,13,09,15,11.30
2021,01,13,09,16,24.20
2021,01,13,09,17,27.40
2021,01,13,09,18,29.00
2021,01,13,09,19,29.00
2021,01,13,09,20,29.00
2021,01,13,09,21,35.40
2021,01,13,09,22,35.40
2021,01,13,09,23,25.70
2021,01,13,09,24,24.20
2021,01,13,09,25,25.70
2021,01,13,09,26,25.70
2021,01,13,09,27,19.30
2021,01,13,09,28,19.30
2021,01,13,09,29,19.30
2021,01,13,09,30,9.60
2021,01,13,09,31,29.00
2021,01,13,09,32,17.70
2021,01,13,09,33,38.60
2021,01,13,09,34,20.90
2021,01,13,09,35,29.00
2021,01,13,09,36,25.70
2021,01,13,09,37,33.80
2021,01,13,09,38,30.60
2021,01,13,09,39,25.70
2021,01,13,09,40,25.70
2021,01,13,09,41,22.50
2021,01,13,09,42,19.30
2021,01,13,09,43,12.90
2021,01,13,09,44,11.30
2021,01,13,09,45,24.20
2021,01,13,09,46,19.30
2021,01,13,09,47,30.60
2021,01,13,09,48,25.70
2021,01,13,09,49,11.30
2021,01,13,09,50,22.50
2021,01,13,09,51,24.20
2021,01,13,09,52,27.40
2021,01,13,09,53,24.20
2021,01,13,09,54,32.20
2021,01,13,09,55,29.00
2021,01,13,09,56,24.20
2021,01,13,09,57,12.90
2021,01,13,09,58,25.70
2021,01,13,09,59,24.20
2021,01,13,10,00,20.90
2021,01,13,10,01,38.60
2021,01,13,10,02,25.70
2021,01,13,10,03,24.20
2021,01,13,10,04,25.70
2021,01,13,10,05,22.50
2021,01,13,10,06,24.20
2021,01,13,10,07,14.50
2021,01,13,10,08,9.60
2021,01,13,10,09,14.50
2021,01,13,10,10,8.10
2021,01,13,10,11,4.80
2021,01,13,10,12,24.20
2021,01,13,10,13,19.30
2021,01,13,10,14,14.50
2021,01,13,10,15,9.60
2021,01,13,10,16,16.10
2021,01,13,10,17,16.10
2021,01,13,10,18,4.80
2021,01,13,10,19,16.10
2021,01,13,10,20,24.20
2021,01,13,10,21,29.00
2021,01,13,10,22,24.20
2021,01,13,10,23,14.50
2021,01,13,10,24,11.30
2021,01,13,10,25,14.50
2021,01,13,10,26,8.10
2021,01,13,10,27,1.60
2021,01,13,10,28,1.60
2021,01,13,10,30,3.20
2021,01,13,10,31,3.20
2021,01,13,10,32,1.60
2021,01,13,10,33,3.20
2021,01,13,10,34,19.30
2021,01,13,10,35,14.50
2021,01,13,10,36,3.20
2021,01,13,10,37,3.20
2021,01,13,10,38,9.60
2021,01,13,10,39,14.50
2021,01,13,10,40,4.80
2021,01,13,10,41,4.80
2021,01,13,10,42,1.60
2021,01,13,10,43,9.60
2021,01,13,10,44,16.10
2021,01,13,10,45,9.60
2021,01,13,10,46,14.50
2021,01,13,10,47,24.20
2021,01,13,10,48,16.10
2021,01,13,10,49,25.70
2021,01,13,10,50,17.70
2021,01,13,10,51,4.80
2021,01,13,10,52,1.60
2021,01,13,10,53,22.50
2021,01,13,10,54,19.30
2021,01,13,10,55,1.60
2021,01,13,10,56,1.60
2021,01,13,10,57,1.60
2021,01,13,10,58,6.40
2021,01,13,10,59,11.30
2021,01,13,11,00,11.30
2021,01,13,11,01,3.20
2021,01,13,11,02,3.20
2021,01,13,11,03,19.30
2021,01,13,11,04,20.90
2021,01,13,11,05,6.40
2021,01,13,11,06,9.60
2021,01,13,11,07,16.10
2021,01,13,11,08,17.70
2021,01,13,11,09,24.20
2021,01,13,11,10,22.50
2021,01,13,11,11,16.10
2021,01,13,11,12,22.50
2021,01,13,11,13,24.20
2021,01,13,11,14,22.50
2021,01,13,11,15,20.90
2021,01,13,11,16,22.50
2021,01,13,11,17,17.70
2021,01,13,11,18,19.30
2021,01,13,11,19,8.10
2021,01,13,11,20,11.30
2021,01,13,11,21,6.40
2021,01,13,11,22,4.80
2021,01,13,11,23,16.10
2021,01,13,11,24,19.30
2021,01,13,11,25,22.50
2021,01,13,11,26,9.60
2021,01,13,11,27,19.30
2021,01,13,11,28,9.60
2021,01,13,11,29,22.50
2021,01,13,11,30,11.30
2021,01,13,11,31,19.30
2021,01,13,11,32,19.30
2021,01,13,11,33,14.50
2021,01,13,11,34,29.00
2021,01,13,11,35,24.20
2021,01,13,11,36,17.70
2021,01,13,11,37,8.10
2021,01,13,11,38,11.30
2021,01,13,11,39,8.10
2021,01,13,11,40,19.30
2021,01,13,11,41,11.30
2021,01,13,11,42,19.30
2021,01,13,11,43,25.70
2021,01,13,11,44,25.70
2021,01,13,11,45,14.50
2021,01,13,11,46,11.30
2021,01,13,11,47,14.50
2021,01,13,11,48,3.20
2021,01,13,11,49,4.80
2021,01,13,11,50,11.30
2021,01,13,11,51,14.50
2021,01,13,11,52,20.90
2021,01,13,11,53,17.70
2021,01,13,11,54,16.10
2021,01,13,11,55,9.60
2021,01,13,11,56,22.50
2021,01,13,11,57,20.90
2021,01,13,11,58,22.50
2021,01,13,11,59,4.80
2021,01,13,12,00,17.70
2021,01,13,12,01,9.60
2021,01,13,12,02,14.50
2021,01,13,12,03,4.80
2021,01,13,12,04,11.30
2021,01,13,12,05,14.50
2021,01,13,12,06,19.30
2021,01,13,12,07,19.30
2021,01,13,12,08,11.30
2021,01,13,12,09,1.60
2021,01,13,12,10,1.60
2021,01,13,12,11,1.60
2021,01,13,12,12,1.60
2021,01,13,12,13,3.20
2021,01,13,12,14,17.70
2021,01,13,12,15,16.10
2021,01,13,12,16,9.60
2021,01,13,12,17,6.40
2021,01,13,12,18,9.60
2021,01,13,12,19,14.50
2021,01,13,12,20,16.10
2021,01,13,12,21,4.80
2021,01,13,12,22,9.60
2021,01,13,12,23,1.60
2021,01,13,12,24,3.20
2021,01,13,12,25,3.20
2021,01,13,12,26,1.60
2021,01,13,12,27,1.60
2021,01,13,12,28,1.60
2021,01,13,12,29,3.20
2021,01,13,12,30,14.50
2021,01,13,12,31,11.30
2021,01,13,12,32,3.20
2021,01,13,12,34,1.60
2021,01,13,12,35,1.60
2021,01,13,12,36,3.20
2021,01,13,12,37,11.30
2021,01,13,12,38,3.20
2021,01,13,12,39,1.60
2021,01,13,12,40,3.20
2021,01,13,12,41,1.60
2021,01,13,12,42,4.80
2021,01,13,12,43,4.80
2021,01,13,12,44,3.20
2021,01,13,12,45,3.20
2021,01,13,12,46,4.80
2021,01,13,12,47,6.40
2021,01,13,12,48,9.60
2021,01,13,12,49,9.60
2021,01,13,12,50,6.40
2021,01,13,12,51,1.60
2021,01,13,12,52,3.20
2021,01,13,12,53,3.20
2021,01,13,12,54,3.20
2021,01,13,12,55,1.60
2021,01,13,12,56,1.60
2021,01,13,12,57,17.70
2021,01,13,12,58,11.30
2021,01,13,12,59,3.20
2021,01,13,13,00,1.60
2021,01,13,13,01,1.60
2021,01,13,13,02,1.60
2021,01,13,13,03,3.20
2021,01,13,13,04,16.10
2021,01,13,13,05,17.70
2021,01,13,13,06,6.40
2021,01,13,13,07,6.40
2021,01,13,13,08,3.20
2021,01,13,13,09,3.20
2021,01,13,13,10,1.60
2021,01,13,13,11,4.80
2021,01,13,13,12,6.40
2021,01,13,13,13,3.20
2021,01,13,13,14,8.10
2021,01,13,13,15,9.60
2021,01,13,13,16,4.80
2021,01,13,13,17,6.40
2021,01,13,13,18,3.20
2021,01,13,13,19,8.10
2021,01,13,13,20,14.50
2021,01,13,13,21,9.60
2021,01,13,13,22,4.80
2021,01,13,13,23,14.50
2021,01,13,13,24,16.10
2021,01,13,13,25,6.40
2021,01,13,13,26,6.40
2021,01,13,13,27,8.10
2021,01,13,13,28,8.10
2021,01,13,13,29,14.50
2021,01,13,13,30,4.80
2021,01,13,13,31,8.10
2021,01,13,13,32,14.50
2021,01,13,13,33,4.80
2021,01,13,13,34,19.30
2021,01,13,13,35,17.70
2021,01,13,13,36,19.30
2021,01,13,13,37,16.10
2021,01,13,13,38,4.80
2021,01,13,13,39,14.50
2021,01,13,13,40,17.70
2021,01,13,13,41,19.30
2021,01,13,13,42,8.10
2021,01,13,13,43,14.50
2021,01,13,13,44,16.10
2021,01,13,13,45,14.50
2021,01,13,13,46,11.30
2021,01,13,13,47,19.30
2021,01,13,13,48,19.30
2021,01,13,13,49,11.30
2021,01,13,13,50,8.10
2021,01,13,13,51,4.80
2021,01,13,13,52,17.70
2021,01,13,13,53,9.60
2021,01,13,13,54,14.50
2021,01,13,13,55,16.10
2021,01,13,13,56,4.80
2021,01,13,13,57,6.40
2021,01,13,13,58,3.20
2021,01,13,13,59,9.60
2021,01,13,14,00,12.90
2021,01,13,14,01,20.90
2021,01,13,14,02,19.30
2021,01,13,14,03,12.90
2021,01,13,14,04,9.60
2021,01,13,14,05,24.20
2021,01,13,14,06,11.30
2021,01,13,14,07,12.90
2021,01,13,14,08,8.10
2021,01,13,14,09,3.20
2021,01,13,14,10,3.20
2021,01,13,14,11,4.80
2021,01,13,14,12,1.60
2021,01,13,14,13,1.60
2021,01,13,14,14,3.20
2021,01,13,14,15,1.60
2021,01,13,14,16,3.20
2021,01,13,14,17,6.40
2021,01,13,14,18,9.60
2021,01,13,14,19,11.30
2021,01,13,14,20,19.30
2021,01,13,14,21,8.10
2021,01,13,14,22,1.60
2021,01,13,14,23,9.60
2021,01,13,14,24,4.80
2021,01,13,14,25,6.40
2021,01,13,14,26,6.40
2021,01,13,14,27,1.60
2021,01,13,14,28,1.60
2021,01,13,14,30,3.20
2021,01,13,14,31,3.20
2021,01,13,14,32,1.60
2021,01,13,14,33,3.20
2021,01,13,14,34,1.60
2021,01,13,14,39,1.60
2021,01,13,14,40,3.20
2021,01,13,14,41,1.60
2021,01,13,14,42,1.60
2021,01,13,14,43,1.60
2021,01,13,14,44,1.60
2021,01,13,14,52,3.20
2021,01,13,14,53,4.80
2021,01,13,14,54,6.40
2021,01,13,14,55,1.60
2021,01,13,14,56,1.60
2021,01,13,14,57,1.60
2021,01,13,14,58,3.20
2021,01,13,14,59,3.20
2021,01,13,15,00,1.60
2021,01,13,15,03,1.60
2021,01,13,15,04,1.60
2021,01,13,15,05,3.20
2021,01,13,15,06,3.20
2021,01,13,15,07,6.40
2021,01,13,15,08,16.10
2021,01,13,15,09,3.20
2021,01,13,15,10,4.80
2021,01,13,15,11,3.20
2021,01,13,15,12,1.60
2021,01,13,15,13,1.60
2021,01,13,15,14,1.60
2021,01,13,15,15,1.60
2021,01,13,15,16,1.60
2021,01,13,15,17,1.60
2021,01,13,15,18,1.60
2021,01,13,15,19,1.60
2021,01,13,15,20,1.60
2021,01,13,15,21,1.60
2021,01,13,15,22,1.60
2021,01,13,15,24,1.60
2021,01,13,15,25,4.80
2021,01,13,15,26,1.60
2021,01,13,15,27,1.60
2021,01,13,15,29,1.60
2021,01,13,15,30,1.60
2021,01,13,15,31,1.60
2021,01,13,15,50,1.60
2021,01,13,15,51,4.80
2021,01,13,15,52,1.60
2021,01,13,15,53,3.20
2021,01,13,15,54,1.60
2021,01,13,15,55,1.60
2021,01,13,16,04,1.60
2021,01,13,16,10,3.20
2021,01,13,16,11,1.60
2021,01,13,16,12,1.60
2021,01,13,16,14,1.60
2021,01,13,16,16,1.60
2021,01,13,16,29,1.60
2021,01,13,16,59,1.60
2021,01,13,17,00,1.60
2021,01,13,17,04,8.10
2021,01,13,17,05,4.80
2021,01,13,17,06,1.60
2021,01,13,17,09,1.60
2021,01,13,17,11,11.30
2021,01,13,17,12,11.30
2021,01,13,17,13,3.20
2021,01,13,17,14,1.60
2021,01,13,17,15,1.60
2021,01,13,17,17,1.60
2021,01,13,17,22,1.60
2021,01,13,17,23,3.20
2021,01,13,17,26,1.60
2021,01,13,17,28,1.60
2021,01,13,17,32,6.40
2021,01,13,17,33,1.60
2021,01,13,17,34,1.60
2021,01,13,17,35,1.60
2021,01,13,17,36,1.60
2021,01,13,17,37,1.60
2021,01,13,17,50,3.20
2021,01,13,17,51,11.30
2021,01,13,17,52,8.10
2021,01,13,17,53,3.20
2021,01,13,17,54,1.60
2021,01,13,17,55,6.40
2021,01,13,17,56,4.80
2021,01,13,17,57,1.60
2021,01,13,17,58,1.60
2021,01,13,17,59,1.60
2021,01,13,18,00,11.30
2021,01,13,18,01,4.80
2021,01,13,18,02,1.60
2021,01,13,19,28,1.60
2021,01,13,19,29,1.60
2021,01,13,20,06,1.60
2021,01,13,23,44,1.60
